| time (UTC) | temp F | wind direction | speed knots | gust knots | rain 1hr in | rain 24hr in | rain mn in | humidity % | barometer mb |
| 20260505041324 | 42 | 258 | 11.3 | 20.9 | 0.00 | 0.01 | 0.00 | 98 | 1011.3 |
| 20260505040827 | 42 | 271 | 8.7 | 21.7 | 0.00 | 0.01 | 0.00 | 98 | 1011.1 |
| 20260505040331 | 42 | 251 | 14.8 | 24.3 | 0.00 | 0.01 | 0.00 | 97 | 1011.3 |
| 20260505035834 | 42 | 276 | 9.6 | 24.3 | 0.00 | 0.01 | 0.00 | 97 | 1011.2 |
| 20260505035337 | 42 | 273 | 11.3 | 24.3 | 0.00 | 0.01 | 0.00 | 97 | 1011.2 |
| 20260505034839 | 42 | 281 | 10.4 | 24.3 | 0.00 | 0.01 | 0.00 | 97 | 1011.1 |
| 20260505034343 | 42 | 268 | 10.4 | 24.3 | 0.00 | 0.01 | 0.00 | 97 | 1011.1 |
| 20260505033846 | 42 | 253 | 13.9 | 24.3 | 0.00 | 0.01 | 0.00 | 97 | 1011.0 |
| 20260505033348 | 43 | 270 | 9.6 | 20.9 | 0.00 | 0.01 | 0.00 | 97 | 1010.9 |
| 20260505032355 | 43 | 256 | 11.3 | 26.9 | 0.00 | 0.01 | 0.00 | 97 | 1010.8 |
| 20260505031857 | 43 | 265 | 18.2 | 27.8 | 0.00 | 0.01 | 0.00 | 96 | 1010.7 |
| 20260505031400 | 43 | 253 | 13.9 | 24.3 | 0.00 | 0.01 | 0.00 | 96 | 1010.6 |
| 20260505030903 | 43 | 266 | 11.3 | 17.4 | 0.00 | 0.01 | 0.00 | 96 | 1010.8 |
| 20260505030406 | 43 | 264 | 8.7 | 20.0 | 0.00 | 0.01 | 0.00 | 96 | 1010.7 |
| 20260505025909 | 43 | 261 | 11.3 | 20.9 | 0.00 | 0.01 | 0.00 | 96 | 1010.7 |
| 20260505025412 | 43 | 281 | 11.3 | 24.3 | 0.00 | 0.01 | 0.00 | 95 | 1010.6 |
| 20260505024915 | 43 | 278 | 9.6 | 24.3 | 0.00 | 0.01 | 0.00 | 95 | 1010.5 |
| 20260505024418 | 43 | 276 | 9.6 | 24.3 | 0.00 | 0.01 | 0.00 | 94 | 1010.6 |
| 20260505023922 | 43 | 278 | 13.9 | 24.3 | 0.00 | 0.01 | 0.00 | 94 | 1010.4 |
| 20260505023424 | 43 | 267 | 10.4 | 23.5 | 0.00 | 0.01 | 0.00 | 94 | 1010.5 |
| 20260505022927 | 43 | 278 | 13.9 | 23.5 | 0.00 | 0.01 | 0.00 | 93 | 1010.2 |
| 20260505022431 | 43 | 256 | 11.3 | 27.8 | 0.00 | 0.01 | 0.00 | 93 | 1010.6 |
| 20260505021933 | 44 | 255 | 14.8 | 28.7 | 0.00 | 0.01 | 0.00 | 93 | 1010.5 |
| 20260505021437 | 44 | 255 | 20.9 | 28.7 | 0.00 | 0.01 | 0.00 | 92 | 1010.4 |
| 20260505020940 | 44 | 259 | 11.3 | 21.7 | 0.00 | 0.01 | 0.00 | 91 | 1010.5 |
| 20260505020443 | 44 | 265 | 12.2 | 25.2 | 0.00 | 0.01 | 0.00 | 91 | 1010.4 |
| 20260505015946 | 44 | 262 | 12.2 | 25.2 | 0.00 | 0.01 | 0.00 | 91 | 1010.2 |
| 20260505015449 | 44 | 253 | 14.8 | 20.9 | 0.00 | 0.01 | 0.00 | 90 | 1010.2 |
| 20260505014952 | 45 | 260 | 13.0 | 19.1 | 0.00 | 0.01 | 0.00 | 89 | 1010.4 |
| 20260505014455 | 45 | 268 | 12.2 | 26.1 | 0.00 | 0.01 | 0.00 | 89 | 1010.4 |
| 20260505013958 | 45 | 268 | 14.8 | 25.2 | 0.00 | 0.01 | 0.00 | 89 | 1010.5 |
| 20260505013004 | 46 | 273 | 15.6 | 23.5 | 0.00 | 0.01 | 0.00 | 88 | 1010.5 |
| 20260505012506 | 46 | 277 | 16.5 | 26.1 | 0.00 | 0.01 | 0.00 | 87 | 1010.4 |
| 20260505012009 | 46 | 280 | 13.0 | 26.9 | 0.00 | 0.01 | 0.00 | 86 | 1010.5 |
| 20260505011512 | 46 | 288 | 16.5 | 26.9 | 0.00 | 0.01 | 0.00 | 86 | 1010.4 |
| 20260505011046 | 47 | 287 | 17.4 | 26.1 | 0.00 | 0.01 | 0.00 | 85 | 1010.5 |
| 20260505011015 | 47 | 287 | 17.4 | 26.1 | 0.00 | 0.01 | 0.00 | 85 | 1010.5 |
| 20260505010518 | 47 | 277 | 13.9 | 24.3 | 0.00 | 0.01 | 0.00 | 85 | 1010.5 |
| 20260505010021 | 47 | 283 | 14.8 | 23.5 | 0.00 | 0.01 | 0.00 | 84 | 1010.7 |
| 20260505005524 | 48 | 280 | 13.9 | 26.1 | 0.00 | 0.01 | 0.00 | 84 | 1010.8 |
| 20260505005027 | 48 | 286 | 15.6 | 26.1 | 0.00 | 0.01 | 0.00 | 83 | 1010.7 |
| 20260505004629 | 48 | 285 | 15.6 | 27.8 | 0.00 | 0.01 | 0.00 | 82 | 1010.6 |
| 20260505004530 | 48 | 285 | 15.6 | 27.8 | 0.00 | 0.01 | 0.00 | 82 | 1010.6 |
| 20260505004108 | 48 | 286 | 15.6 | 32.2 | 0.00 | 0.01 | 0.00 | 83 | 1010.6 |
| 20260505004033 | 48 | 286 | 15.6 | 32.2 | 0.00 | 0.01 | 0.00 | 83 | 1010.6 |
| 20260505003630 | 48 | 258 | 23.5 | 32.2 | 0.00 | 0.01 | 0.00 | 82 | 1010.6 |
| 20260505003537 | 48 | 258 | 23.5 | 32.2 | 0.00 | 0.01 | 0.00 | 82 | 1010.6 |
| 20260505003040 | 48 | 265 | 15.6 | 27.8 | 0.00 | 0.01 | 0.00 | 82 | 1010.7 |
| 20260505002543 | 49 | 265 | 16.5 | 26.1 | 0.00 | 0.01 | 0.00 | 81 | 1011.0 |
| 20260505002046 | 49 | 253 | 11.3 | 27.8 | 0.00 | 0.01 | 0.00 | 81 | 1011.0 |
| 20260505001051 | 48 | 254 | 17.4 | 27.8 | 0.00 | 0.01 | 0.00 | 82 | 1010.8 |
| 20260505000555 | 48 | 271 | 11.3 | 26.1 | 0.00 | 0.01 | 0.00 | 82 | 1010.8 |
| 20260505000058 | 49 | 265 | 16.5 | 26.1 | 0.00 | 0.01 | 0.00 | 80 | 1010.8 |
| 20260504235713 | 49 | 264 | 12.2 | 26.9 | 0.00 | 0.01 | 0.00 | 80 | 1010.8 |
| 20260504235601 | 49 | 264 | 12.2 | 26.9 | 0.00 | 0.01 | 0.00 | 80 | 1010.8 |
| 20260504235104 | 49 | 252 | 20.0 | 26.9 | 0.00 | 0.01 | 0.00 | 80 | 1010.8 |
| 20260504234738 | 49 | 257 | 15.6 | 27.8 | 0.00 | 0.01 | 0.00 | 79 | 1010.7 |
| 20260504234607 | 49 | 257 | 15.6 | 27.8 | 0.00 | 0.01 | 0.00 | 79 | 1010.7 |
| 20260504234225 | 49 | 251 | 17.4 | 29.5 | 0.00 | 0.01 | 0.00 | 79 | 1010.9 |
| 20260504234109 | 49 | 251 | 17.4 | 29.5 | 0.00 | 0.01 | 0.00 | 79 | 1010.9 |
| 20260504233613 | 49 | 246 | 20.0 | 29.5 | 0.00 | 0.01 | 0.00 | 78 | 1010.8 |
| 20260504233116 | 49 | 251 | 16.5 | 26.1 | 0.00 | 0.01 | 0.00 | 78 | 1010.9 |
| 20260504232738 | 49 | 275 | 12.2 | 26.1 | 0.00 | 0.01 | 0.00 | 78 | 1010.8 |
| 20260504232619 | 49 | 275 | 12.2 | 26.1 | 0.00 | 0.01 | 0.00 | 78 | 1010.8 |
| 20260504232122 | 49 | 258 | 13.9 | 24.3 | 0.00 | 0.01 | 0.00 | 77 | 1010.7 |
| 20260504231128 | 50 | 280 | 13.0 | 22.6 | 0.00 | 0.01 | 0.00 | 76 | 1010.9 |
| 20260504230734 | 50 | 265 | 9.6 | 26.1 | 0.00 | 0.01 | 0.00 | 78 | 1011.0 |
| 20260504230631 | 50 | 265 | 9.6 | 26.1 | 0.00 | 0.01 | 0.00 | 78 | 1011.0 |
| 20260504225739 | 50 | 247 | 14.8 | 25.2 | 0.00 | 0.01 | 0.00 | 75 | 1010.9 |
| 20260504225637 | 50 | 247 | 14.8 | 25.2 | 0.00 | 0.01 | 0.00 | 75 | 1010.9 |
| 20260504225140 | 51 | 274 | 13.9 | 23.5 | 0.00 | 0.01 | 0.00 | 76 | 1010.9 |
| 20260504224643 | 50 | 263 | 13.0 | 25.2 | 0.00 | 0.01 | 0.00 | 77 | 1011.0 |
| 20260504224222 | 40 | 262 | 12.2 | 26.9 | 0.00 | 0.01 | 0.00 | 75 | 1011.0 |
| 20260504224146 | 0 | 262 | 12.2 | 26.9 | 0.00 | 0.01 | 0.00 | 75 | 1011.0 |
| 20260504223649 | 51 | 269 | 15.6 | 26.9 | 0.00 | 0.01 | 0.00 | 73 | 1010.8 |
| 20260504222655 | 51 | 282 | 15.6 | 23.5 | 0.00 | 0.01 | 0.00 | 75 | 1011.1 |
| 20260504222158 | 51 | 283 | 15.6 | 26.9 | 0.00 | 0.01 | 0.00 | 73 | 1011.1 |
| 20260504221928 | 51 | 254 | 17.4 | 26.9 | 0.00 | 0.01 | 0.00 | 73 | 1011.2 |
| 20260504221701 | 51 | 254 | 17.4 | 26.9 | 0.00 | 0.01 | 0.00 | 73 | 1011.2 |
| 20260504221204 | 51 | 279 | 14.8 | 26.9 | 0.00 | 0.01 | 0.00 | 76 | 1011.1 |
| 20260504220707 | 50 | 283 | 14.8 | 26.9 | 0.00 | 0.01 | 0.00 | 76 | 1011.2 |
| 20260504220348 | 50 | 274 | 14.8 | 26.9 | 0.00 | 0.01 | 0.00 | 75 | 1011.2 |
| 20260504220210 | 50 | 274 | 14.8 | 26.9 | 0.00 | 0.01 | 0.00 | 75 | 1011.2 |
| 20260504215712 | 51 | 247 | 19.1 | 28.7 | 0.00 | 0.01 | 0.00 | 75 | 1011.4 |
| 20260504215344 | 51 | 250 | 21.7 | 28.7 | 0.00 | 0.01 | 0.00 | 74 | 1011.3 |
| 20260504215216 | 51 | 250 | 21.7 | 28.7 | 0.00 | 0.01 | 0.00 | 74 | 1011.3 |
| 20260504214719 | 51 | 265 | 13.0 | 26.9 | 0.00 | 0.01 | 0.00 | 76 | 1011.5 |
| 20260504214222 | 51 | 264 | 12.2 | 27.8 | 0.00 | 0.01 | 0.00 | 77 | 1011.4 |
| 20260504213725 | 51 | 253 | 18.2 | 27.8 | 0.00 | 0.01 | 0.00 | 77 | 1011.5 |
| 20260504213342 | 51 | 257 | 15.6 | 26.1 | 0.00 | 0.01 | 0.00 | 77 | 1011.6 |
| 20260504213228 | 51 | 257 | 15.6 | 26.1 | 0.00 | 0.01 | 0.00 | 77 | 1011.6 |
| 20260504212730 | 50 | 269 | 12.2 | 23.5 | 0.00 | 0.01 | 0.00 | 79 | 1011.8 |
| 20260504212234 | 50 | 282 | 13.0 | 22.6 | 0.00 | 0.01 | 0.00 | 81 | 1011.7 |
| 20260504211737 | 49 | 269 | 10.4 | 22.6 | 0.00 | 0.01 | 0.00 | 81 | 1011.9 |
| 20260504211239 | 50 | 280 | 11.3 | 22.6 | 0.00 | 0.01 | 0.00 | 80 | 1011.9 |
| 20260504210245 | 50 | 277 | 12.2 | 20.0 | 0.00 | 0.01 | 0.00 | 81 | 1012.0 |
| 20260504205820 | 50 | 264 | 9.6 | 25.2 | 0.00 | 0.01 | 0.00 | 83 | 1012.0 |
| 20260504205749 | 50 | 264 | 9.6 | 25.2 | 0.00 | 0.01 | 0.00 | 83 | 1012.0 |
| 20260504204754 | 49 | 286 | 13.0 | 22.6 | 0.00 | 0.01 | 0.00 | 85 | 1011.8 |
| 20260504204257 | 49 | 275 | 13.9 | 25.2 | 0.00 | 0.01 | 0.00 | 84 | 1011.7 |
| 20260504203801 | 50 | 282 | 15.6 | 25.2 | 0.00 | 0.01 | 0.00 | 82 | 1012.0 |
| 20260504203303 | 50 | 277 | 12.2 | 24.3 | 0.00 | 0.01 | 0.00 | 84 | 1011.9 |
| 20260504202859 | 49 | 269 | 12.2 | 22.6 | 0.00 | 0.01 | 0.00 | 85 | 1011.9 |
| 20260504202806 | 49 | 269 | 12.2 | 22.6 | 0.00 | 0.01 | 0.00 | 85 | 1011.9 |
| 20260504202310 | 49 | 258 | 13.9 | 22.6 | 0.00 | 0.01 | 0.00 | 85 | 1012.0 |
| 20260504201813 | 49 | 266 | 14.8 | 21.7 | 0.00 | 0.01 | 0.00 | 85 | 1012.0 |
| 20260504201453 | 48 | 289 | 12.2 | 20.9 | 0.00 | 0.01 | 0.00 | 88 | 1012.0 |
| 20260504201351 | 48 | 289 | 12.2 | 20.9 | 0.00 | 0.01 | 0.00 | 88 | 1012.0 |
| 20260504201316 | 48 | 289 | 12.2 | 20.9 | 0.00 | 0.01 | 0.00 | 88 | 1012.0 |
| 20260504200914 | 48 | 290 | 9.6 | 18.2 | 0.00 | 0.01 | 0.00 | 90 | 1012.0 |
| 20260504200819 | 48 | 290 | 9.6 | 18.2 | 0.00 | 0.01 | 0.00 | 90 | 1012.0 |
| 20260504195825 | 47 | 267 | 10.4 | 16.5 | 0.00 | 0.01 | 0.00 | 91 | 1012.1 |
| 20260504195328 | 47 | 276 | 10.4 | 18.2 | 0.00 | 0.01 | 0.00 | 92 | 1012.1 |
| 20260504194831 | 46 | 275 | 12.2 | 20.9 | 0.00 | 0.01 | 0.00 | 92 | 1012.1 |
| 20260504194334 | 46 | 272 | 13.9 | 20.9 | 0.00 | 0.01 | 0.00 | 92 | 1012.1 |
| 20260504193837 | 46 | 252 | 11.3 | 17.4 | 0.00 | 0.01 | 0.00 | 93 | 1012.1 |
| 20260504193340 | 46 | 276 | 9.6 | 19.1 | 0.00 | 0.01 | 0.00 | 94 | 1012.3 |
| 20260504192843 | 46 | 262 | 11.3 | 19.1 | 0.00 | 0.01 | 0.00 | 94 | 1012.0 |
| 20260504192346 | 46 | 286 | 10.4 | 18.2 | 0.00 | 0.01 | 0.00 | 94 | 1011.8 |
| 20260504191849 | 46 | 275 | 7.0 | 21.7 | 0.00 | 0.01 | 0.00 | 94 | 1012.1 |
| 20260504191352 | 46 | 272 | 8.7 | 25.2 | 0.00 | 0.01 | 0.00 | 94 | 1012.1 |
| 20260504190943 | 45 | 262 | 18.2 | 25.2 | 0.00 | 0.01 | 0.00 | 94 | 1012.1 |
| 20260504190855 | 45 | 262 | 18.2 | 25.2 | 0.00 | 0.01 | 0.00 | 94 | 1012.1 |
| 20260504190358 | 45 | 263 | 17.4 | 23.5 | 0.00 | 0.01 | 0.00 | 94 | 1012.1 |
| 20260504185901 | 45 | 261 | 14.8 | 22.6 | 0.00 | 0.01 | 0.00 | 94 | 1012.3 |
| 20260504185404 | 45 | 270 | 8.7 | 23.5 | 0.00 | 0.01 | 0.00 | 94 | 1012.3 |
| 20260504184907 | 46 | 269 | 15.6 | 23.5 | 0.00 | 0.01 | 0.00 | 94 | 1012.3 |
| 20260504184552 | 46 | 262 | 16.5 | 24.3 | 0.00 | 0.01 | 0.00 | 95 | 1013.0 |
| 20260504184410 | 46 | 262 | 16.5 | 24.3 | 0.00 | 0.01 | 0.00 | 95 | 1013.0 |
| 20260504183913 | 45 | 256 | 10.4 | 24.3 | 0.00 | 0.01 | 0.00 | 96 | 1013.0 |
| 20260504183416 | 45 | 267 | 16.5 | 24.3 | 0.00 | 0.01 | 0.00 | 96 | 1013.0 |
| 20260504182919 | 44 | 269 | 18.2 | 23.5 | 0.00 | 0.01 | 0.00 | 97 | 1013.0 |
| 20260504182422 | 44 | 274 | 13.9 | 25.2 | 0.00 | 0.01 | 0.00 | 97 | 1013.0 |
| 20260504181925 | 44 | 275 | 15.6 | 25.2 | 0.00 | 0.01 | 0.00 | 97 | 1012.8 |
| 20260504181428 | 44 | 272 | 15.6 | 24.3 | 0.00 | 0.01 | 0.00 | 97 | 1012.9 |
| 20260504180931 | 44 | 263 | 15.6 | 24.3 | 0.00 | 0.01 | 0.00 | 97 | 1012.8 |
| 20260504180434 | 44 | 268 | 13.9 | 23.5 | 0.00 | 0.01 | 0.00 | 97 | 1012.4 |
| 20260504175937 | 44 | 271 | 14.8 | 26.1 | 0.00 | 0.01 | 0.00 | 97 | 1012.6 |
| 20260504175440 | 44 | 268 | 19.1 | 26.1 | 0.00 | 0.01 | 0.00 | 97 | 1012.4 |
| 20260504174446 | 44 | 265 | 18.2 | 24.3 | 0.00 | 0.01 | 0.00 | 98 | 1012.4 |
| 20260504173949 | 44 | 257 | 16.5 | 23.5 | 0.00 | 0.01 | 0.00 | 98 | 1012.3 |
| 20260504173452 | 43 | 278 | 16.5 | 23.5 | 0.00 | 0.01 | 0.00 | 98 | 1012.2 |
| 20260504173043 | 43 | 264 | 14.8 | 26.1 | 0.00 | 0.01 | 0.00 | 98 | 1012.2 |
| 20260504172955 | 43 | 264 | 14.8 | 26.1 | 0.00 | 0.01 | 0.00 | 98 | 1012.2 |
| 20260504172458 | 43 | 265 | 13.0 | 26.1 | 0.00 | 0.01 | 0.00 | 99 | 1012.0 |
| 20260504172001 | 43 | 260 | 13.0 | 26.1 | 0.00 | 0.01 | 0.00 | 99 | 1012.2 |
| 20260504171618 | 43 | 267 | 13.9 | 24.3 | 0.00 | 0.01 | 0.00 | 99 | 1011.9 |
| 20260504171504 | 43 | 267 | 13.9 | 24.3 | 0.00 | 0.01 | 0.00 | 99 | 1011.9 |
| 20260504170510 | 42 | 273 | 15.6 | 26.1 | 0.00 | 0.01 | 0.00 | 99 | 1011.4 |
| 20260504151119 | 41 | 269 | 14.8 | 27.8 | 0.00 | 0.01 | 0.00 | 100 | 1010.7 |
| 20260504150125 | 41 | 280 | 20.0 | 25.2 | 0.00 | 0.01 | 0.00 | 100 | 1010.6 |
| 20260504141155 | 40 | 276 | 15.6 | 29.5 | 0.00 | 0.01 | 0.01 | 100 | 1010.8 |
| 20260504140658 | 40 | 273 | 20.9 | 29.5 | 0.00 | 0.01 | 0.01 | 100 | 1010.8 |
| 20260504140201 | 40 | 276 | 20.9 | 30.4 | 0.00 | 0.01 | 0.01 | 100 | 1010.4 |
| 20260504130806 | 41 | 273 | 12.2 | 24.3 | 0.00 | 0.01 | 0.01 | 100 | 1009.9 |
| 20260504130734 | 41 | 273 | 12.2 | 24.3 | 0.00 | 0.01 | 0.01 | 100 | 1009.9 |
| 20260504130237 | 41 | 271 | 12.2 | 26.9 | 0.00 | 0.01 | 0.01 | 100 | 1010.0 |
| 20260504120313 | 42 | 265 | 20.9 | 34.8 | 0.01 | 0.01 | 0.01 | 100 | 1009.6 |
| 20260504110349 | 42 | 275 | 22.6 | 33.9 | 0.00 | 0.00 | 0.00 | 99 | 1009.3 |
| 20260504100425 | 43 | 267 | 19.1 | 28.7 | 0.00 | 0.00 | 0.00 | 99 | 1009.5 |
| 20260504081531 | 42 | 266 | 23.5 | 35.6 | 0.00 | 0.00 | 0.00 | 96 | 1010.2 |
| 20260504081034 | 42 | 270 | 23.5 | 35.6 | 0.00 | 0.00 | 0.00 | 97 | 1010.2 |
| 20260504080537 | 42 | 270 | 22.6 | 34.8 | 0.00 | 0.00 | 0.00 | 97 | 1010.3 |
| 20260504070115 | 42 | 278 | 22.6 | 32.2 | 0.00 | 0.00 | 0.00 | 96 | 1010.1 |
| 20260504060152 | 42 | 261 | 20.0 | 29.5 | 0.00 | 0.00 | 0.00 | 97 | 1009.5 |
| 20260504050724 | 43 | 271 | 22.6 | 31.3 | 0.00 | 0.00 | 0.00 | 97 | 1010.4 |